Flight Track Log - Related Links

Times and Time Zones

All times are in EDT time to prevent confusion due to time zone crossing. See the N675MC flight status page for this flight to view local times or setup timezone preferences in your user account.

Time Position Orientation Groundspeed Altitude Reporting Facility
EDT Latitude Longitude Course Direction KTS MPH feet Rate Location/Type
Mon 08:09:33 AM 33.4631 -82.0642 244° Southwest 251 289 4,000  Level Atlanta Center
Mon 08:10:33 AM 33.4564 -82.1564 265° West 266 306 6,700 2,400 Climbing Atlanta Center
Mon 08:11:33 AM 33.4469 -82.2389 262° West 281 323 8,800 2,100 Climbing Atlanta Center
Mon 08:12:33 AM 33.4339 -82.3461 262° West 321 369 10,900 1,650 Climbing Atlanta Center
Mon 08:13:00 AM 33.4241 -82.4286 244° Southwest  Level Estimated
Mon 08:13:33 AM 33.4189 -82.4633 261° West 352 405 12,100  Level Atlanta Center
Mon 08:14:33 AM 33.3994 -82.5931 260° West 384 442 14,000 1,850 Climbing Atlanta Center
Mon 08:15:33 AM 33.3803 -82.7378 261° West 400 460 15,800 1,650 Climbing Atlanta Center
Mon 08:16:33 AM 33.3631 -82.8772 262° West 415 478 17,300 1,450 Climbing Atlanta Center
Mon 08:17:33 AM 33.3456 -83.0217 262° West 434 499 18,700 1,650 Climbing Atlanta Center
Mon 08:18:33 AM 33.3319 -83.1611 263° West 439 505 20,600 1,650 Climbing Atlanta Center
Mon 08:19:33 AM 33.3078 -83.2956 258° West 427 491 22,000 700 Climbing Atlanta Center
Mon 08:20:33 AM 33.2814 -83.4300 257° West 413 475 22,000 -1,550 Level Atlanta Center
Mon 08:21:33 AM 33.2569 -83.5619 258° West 413 475 18,900 -3,150 Descending Atlanta Center
Mon 08:22:33 AM 33.2364 -83.6861 259° West 399 459 15,700 -2,350 Descending Atlanta Center
Mon 08:23:33 AM 33.2200 -83.7956 260° West 387 445 14,200 -1,150 Descending Atlanta Center
Mon 08:24:33 AM 33.2722 -83.8947 302° West 334 384 13,400 -750 Descending Atlanta Center
Mon 08:25:33 AM 33.3350 -83.9842 310° West 341 392 12,700 -700 Descending Atlanta Center
Mon 08:26:33 AM 33.3956 -84.0761 308° West 356 410 12,000 -350 Descending Atlanta Center
Mon 08:27:33 AM 33.4497 -84.1708 304° West 356 410 12,000  Level Atlanta Center
Mon 08:28:33 AM 33.4978 -84.2456 308° West 312 359 12,000 -390 Level Atlanta Center
Mon 08:29:36 AM 33.5333 -84.3167 301° West 248 285 11,200 -1,200 Descending Atlanta TRACON
Mon 08:30:33 AM 33.5411 -84.4053 276° West 241 277 9,600 -1,692 Descending Atlanta Center
Mon 08:31:33 AM 33.5347 -84.4850 265° West 241 277 7,900 -1,797 Descending Atlanta Center
Mon 08:33:30 AM 33.5333 -84.6333 269° West 229 264 4,300 -1,475 Descending Atlanta TRACON
Mon 08:34:36 AM 33.5500 -84.7000 287° West 202 232 3,400 -619 Descending Atlanta TRACON
Mon 08:35:36 AM 33.6000 -84.7167 344° North 192 221 3,000 -211 Descending Atlanta TRACON
Mon 08:36:30 AM 33.6167 -84.6667 68° East 182 209 3,000  Level Atlanta TRACON
Mon 08:37:30 AM 33.6167 -84.6167 90° East 188 216 3,000 -211 Level Atlanta TRACON
Mon 08:38:24 AM 33.6167 -84.5500 90° East 189 217 2,600 -684 Descending Atlanta TRACON
Mon 08:39:24 AM 33.6167 -84.5000 90° East 146 168 1,700 -789 Descending Atlanta TRACON
Mon 08:40:18 AM 33.6167 -84.4500 90° East 136 157 1,100 -667 Descending Atlanta TRACON

Login

Don't have an account? Register now (free) for customized features, flight alerts, and more!